Location: Sevilla
(37.3933°N, 5.9839°W)
Time: 05:13:00
(UTC+02:00)

Vanguard 3 - Pass Details

Date: 26 June 2024
Orbit: 508 x 3231 km, 33.4° (Epoch: 15 July)

Event Time Altitude Azimuth Distance (km) Brightness Sun altitude
Rises 15:15:35 0° 275° (W) 3,964 10.8 72.5°
Reaches altitude 10° 15:19:23 10° 262° (W) 2,573 10.1 72.0°
Maximum altitude 15:23:46 23° 212° (SSW) 1,461 9.2 71.4°
Drops below altitude 10° 15:27:05 10° 159° (SSE) 1,880 9.3 70.9°
Sets 15:29:23 0° 142° (SE) 2,652 9.8 70.6°
